This demonstration page uses our WeatherBlox Daily Observations layout. Learn more.

Left ArrowRight Arrow

Hourly Observations for March 6, 2015

Temp ( °F °C ) Dew Point ( °F °C ) Humidity (%) Winds ( mph kmh ) Pressure ( in mb ) Visibility ( mi km ) Precip ( " mm )
12:53 am 00:53 Cloudy 33 0.6 19 -7.2 56 56 SW 12 19 30.11 1020 10 16 N/A
1:53 am 01:53 Clear 35 1.7 18 -7.8 50 50 SSW 18 30 30.10 1019 10 16 N/A
2:53 am 02:53 Clear 32 undefined 18 -7.8 56 56 SSW 16 26 30.10 1019 10 16 N/A
3:53 am 03:53 Clear 32 undefined 19 -7.2 59 59 SW 17 28 30.09 1019 10 16 N/A
4:53 am 04:53 Clear 32 undefined 20 -6.7 61 61 SW 17 28 30.11 1020 10 16 N/A
5:53 am 05:53 Clear 33 0.6 20 -6.7 58 58 SW 15 24 30.12 1020 10 16 N/A
6:53 am 06:53 Sunny 32 undefined 21 -6.1 64 64 SW 16 26 30.14 1021 10 16 N/A
7:53 am 07:53 Sunny 37 2.8 21 -6.1 52 52 SW 21 33 30.14 1021 10 16 N/A
8:53 am 08:53 Sunny 41 5 22 -5.6 47 47 SW 21 33 30.15 1021 10 16 N/A
9:53 am 09:53 Sunny 47 8.3 23 -5 39 39 SW 18 30 30.13 1020 10 16 N/A
10:53 am 10:53 Sunny 55 12.8 24 -4.4 30 30 W 18 30 30.12 1020 10 16 N/A
11:53 am 11:53 Sunny 59 15 23 -5 25 25 WNW 21 33 30.03 1017 10 16 N/A
12:53 pm 12:53 Sunny 60 15.6 22 -5.6 23 23 NW 20 31 30.10 1019 10 16 N/A
1:53 pm 13:53 Sunny 59 15 22 -5.6 24 24 NW 21 33 30.09 1019 10 16 N/A
2:53 pm 14:53 Sunny 59 15 22 -5.6 24 24 NNW 21 33 30.11 1020 10 16 N/A
3:53 pm 15:53 Sunny 57 13.9 24 -4.4 28 28 NNW 20 31 30.13 1020 10 16 N/A
4:49 pm 16:49 Sunny 50 10 27 -3 40 40 NE 18 30 30.12 1020 10 16 N/A
4:53 pm 16:53 Sunny 49 9.4 27 -2.8 43 43 NNE 14 22 30.16 1022 10 16 N/A
5:00 pm 17:00 Sunny 48 9 27 -3 43 43 NNE 12 19 30.12 1020 10 16 N/A
5:53 pm 17:53 Sunny 42 5.6 24 -4.4 49 49 E 8 13 30.20 1023 10 16 N/A
6:53 pm 18:53 Clear 39 3.9 24 -4.4 55 55 SSE 3 6 30.24 1024 10 16 N/A
7:53 pm 19:53 Clear 29 -1.7 20 -6.7 69 69 N N/A 30.26 1025 10 16 N/A
8:53 pm 20:53 Clear 30 -1.1 21 -6.1 69 69 N N/A 30.28 1025 10 16 N/A
9:53 pm 21:53 Clear 27 -2.8 20 -6.7 75 75 N N/A 30.29 1026 10 16 N/A
10:53 pm 22:53 Clear 24 -4.4 19 -7.2 81 81 W 3 6 30.29 1026 10 16 N/A
11:53 pm 23:53 Clear 25 -3.9 20 -6.7 81 81 WNW 6 9 30.29 1026 10 16 N/A

Powered by AerisWeather